Simultaneous Nadir Overpasses (SNOs) Predictions

Prediction of SNOs between LANDSAT-8 and NOAA-19 Satellite Orbit:

Table of predicted SNOs for the next 14.0 days since TLE Epoch: 4/5/2014
Index Date (LANDSAT-8) Time (LANDSAT-8) Lat,Lon (LANDSAT-8) SZA (LANDSAT-8 ) Date (NOAA-19) Time (NOAA-19) Lat,Lon (NOAA-19) SZA (NOAA-19 ) Distance(km) Time Diff (sec)
1 04/05/2014 16:45:11 71.75, -72.50 65.44 04/05/2014 16:45:05 71.76, -72.55 65.45 2.25 6
2 04/05/2014 17:34:50 -71.16, 94.16 115.16 04/05/2014 17:35:59 -71.16, 95.78 115.18 57.91 69
3 04/07/2014 21:29:26 71.78,-143.53 64.63 04/07/2014 21:29:02 71.80,-143.58 64.66 2.50 24
4 04/07/2014 22:18:56 -71.67, 23.93 115.49 04/07/2014 22:20:05 -71.66, 23.90 115.50 1.62 69
5 04/10/2014 02:13:41 71.79, 145.41 63.82 04/10/2014 02:12:58 71.79, 145.48 63.83 2.55 43
6 04/10/2014 03:03:11 -71.68, -47.13 116.30 04/10/2014 03:04:01 -71.67, -47.06 116.32 3.15 50
7 04/12/2014 06:57:55 71.83, 74.41 63.05 04/12/2014 06:56:55 71.84, 74.42 63.07 1.15 60
8 04/12/2014 07:47:25 -71.73,-118.13 117.06 04/12/2014 07:47:58 -71.73,-118.14 117.06 0.70 33
9 04/14/2014 11:42:07 71.96, 3.57 62.39 04/14/2014 11:40:54 72.00, 3.15 62.43 14.83 73
10 04/14/2014 12:31:39 -71.75, 170.84 117.84 04/14/2014 12:31:54 -71.76, 170.85 117.83 0.72 15
11 04/16/2014 16:26:09 72.61, -66.34 62.25 04/16/2014 16:25:03 72.67, -69.17 62.34 94.49 66
12 04/16/2014 17:15:52 -71.81, 99.87 118.56 04/16/2014 17:15:50 -71.80, 99.82 118.57 2.56 2
13 04/16/2014 18:05:29 71.15, -93.56 60.78 04/16/2014 18:06:37 71.16, -91.77 60.78 64.56 68
14 04/18/2014 22:00:06 -71.80, 28.78 119.35 04/18/2014 21:59:45 -71.80, 28.86 119.34 2.62 21




NCC Satellite Simultaneous Nadir Overpasses (SNOs) Prediction Service
